|
BREEZE-M DEB (TANK) - Orbit
|
Wisbech St Mary;
03:28:15
| Home | Info | Passes |
|
View from above orbital plane
|
View from above satellite
|
Ground track
|
The orbit data is extracted from the following two-line orbital elements,
1 29649U 06056B 13139.21583604 .00001745 00000-0 48380-3 0 6869
2 29649 049.4886 233.5814 5426827 319.7694 023.0547 04.90357557113865
| Epoch (UTC): | 19 May 2013 05:10:48 |
| Eccentricity: | 0.5426827 |
| inclination: | 49.4886° |
| perigee height: | 315 km |
| apogee height: | 16199 km |
| right ascension of ascending node: | 233.5814° |
| argument of perigee: | 319.7694° |
| revolutions per day: | 4.90357557 |
| mean anomaly at epoch: | 23.0547° |
| orbit number at epoch: | 11386 |
The dashed part of the orbit path shows where the satellite is in the earth's shadow,
|
|